Погода в Барсуковской

Россия / Ставропольский край     44°45′41″N   41°49′04″E
темп.,
°C
ветер,
м/с
пор.,
м/с
влажн.,
%
обл.,
%
осадки,
мм/ч
давл.,
гПа
погр.,
м
26 сентября, вс
вс2600:00+8з410900 0.0 1020318
03:00+8з411882 0.0 1021304
06:00+8зюз388649 0.0 1021205
09:00+13з6146873 0.0 10201020
12:00+16з8156719 0.0 10191427
15:00+19зсз9145413 0.0 10171485
18:00+15зсз817650 0.0 1017730
21:00+14з7176779 0.0 1017682
27 сентября, пн
пн2700:00+14з61669100 0.1 1016859
03:00+13з71587100 0.6 1016898
06:00+13з81486100 0.6 10151030
09:00+13сз3990100 1.1 1016770
12:00+12сз377299 0.3 1017616
15:00+13з377177 0.3 1016723
18:00+13зюз3579100 0.0 1017171
21:00+12зюз128066 0.0 101760
28 сентября, вт
вт2800:00+11с117551 0.0 101714
03:00+9св117739 0.0 101711
06:00+9всв117782 0.0 101820
09:00+11вюв1268100 0.0 1018131
12:00+13всв225792 0.0 1018514
15:00+15ссв2251100 0.0 10181017
18:00+13св1157100 0.0 101917
21:00+13в1158100 0.0 102019
29 сентября, ср
ср2900:00+12св116487 0.0 102022
03:00+11в226783 0.0 102037
06:00+11всв2366100 0.0 102177
09:00+13всв356476 0.0 1022580
12:00+14в4564100 0.0 10221003
15:00+13всв4572100 0.3 1022772
18:00+11всв6970100 0.1 1024625
21:00+9всв5976100 0.1 1025550
30 сентября, чт
чт3000:00+8всв4875100 0.1 1026590
03:00+7всв5873100 0.1 1026579
06:00+7в487399 0.0 1028579
09:00+8в676177 0.0 1029821
12:00+11вюв675488 0.0 10281303
15:00+12в675032 0.0 10281501
18:00+8вюв58615 0.0 1029291
21:00+6в39772 0.0 1030291